Gainesville, TX

2:57 PM CDT on October 17, 2017 (GMT -0500)
Gainesville Municipal

Weather History for KGLE - January, 2014

Change the Weather History Date:

Saturday, January 25, 2014

  Actual Average (KDTO) Record (KDTO)
Temperature  
Mean Temperature 46 °F -  
Max Temperature 68 °F 54 °F 80 °F (2005)
Min Temperature 23 °F 32 °F 26 °F (2014)
Degree Days  
Heating Degree Days 20    
Moisture  
Dew Point 20 °F    
Average Humidity 39    
Maximum Humidity 65    
Minimum Humidity 17    
Precipitation  
Precipitation 0.00 in - - ()
Sea Level Pressure  
Sea Level Pressure 30.09 in    
Wind  
Wind Speed 5 mph (West)    
Max Wind Speed 15 mph    
Max Gust Speed 18 mph    
Visibility 10 miles    
Events      
Averages and records for this station are not official NWS values.
T = Trace of Precipitation, MM = Missing Value Source: NWS Daily Summary

Daily Weather History Graph

Daily Weather History Graph

Search for Another Location

Airport or City:

Trip Planner

Search our weather history database for the weather conditions in past years. The results will help you decide how hot, cold, wet, or windy it might be!

Date:

Astronomy

Jan. 25, 2014 Rise Set
Actual Time 7:29 AM CST 5:53 PM CST
Civil Twilight 7:02 AM CST 6:19 PM CST
Nautical Twilight 6:32 AM CST 6:49 PM CST
Astronomical Twilight 6:03 AM CST 7:19 PM CST
Moon 2:04 AM CST (1/25) 12:54 PM CST (1/25)
Length of Visible Light 11h 16m
Length of Day
10h 23m
Waning Crescent, 34% of the Moon is Illuminated
Jan 25
Waning Crescent
Jan 30
New
Feb 6
First Quarter
Feb 14
Full
Feb 22
Last Quarter

Hourly Weather History & Observations

Time (CST) Temp. Windchill Dew Point Humidity Pressure Visibility Wind Dir Wind Speed Gust Speed Precip Events Conditions
12:15 AM 28.6 °F 22.4 °F 5.2 °F 37% 30.20 in 10.0 mi South 5.8 mph - N/A   Clear
12:35 AM 28.4 °F 22.2 °F 9.7 °F 46% 30.19 in 10.0 mi South 5.8 mph - N/A   Clear
12:55 AM 28.4 °F 21.2 °F 9.5 °F 45% 30.18 in 10.0 mi SSE 6.9 mph - N/A   Clear
1:15 AM 28.4 °F 22.2 °F 9.5 °F 45% 30.17 in 10.0 mi SSE 5.8 mph - N/A   Clear
1:35 AM 28.4 °F 20.4 °F 10.4 °F 47% 30.16 in 10.0 mi SSE 8.1 mph - N/A   Clear
1:55 AM 28.4 °F 22.2 °F 10.4 °F 47% 30.16 in 10.0 mi SSE 5.8 mph - N/A   Clear
2:15 AM 26.1 °F 19.4 °F 9.5 °F 50% 30.15 in 10.0 mi SSE 5.8 mph - N/A   Clear
2:35 AM 26.8 °F 21.4 °F 9.5 °F 48% 30.15 in 10.0 mi SE 4.6 mph - N/A   Clear
2:55 AM 26.1 °F 19.4 °F 11.1 °F 53% 30.14 in 10.0 mi SE 5.8 mph - N/A   Clear
3:15 AM 26.1 °F 20.5 °F 11.1 °F 53% 30.14 in 10.0 mi SE 4.6 mph - N/A   Clear
3:35 AM 25.2 °F 19.5 °F 11.5 °F 56% 30.13 in 10.0 mi SE 4.6 mph - N/A   Clear
3:55 AM 26.1 °F - 10.4 °F 52% 30.12 in 10.0 mi Calm Calm - N/A   Clear
4:15 AM 27.0 °F - 11.1 °F 51% 30.11 in 10.0 mi Calm Calm - N/A   Clear
4:35 AM 26.1 °F - 10.4 °F 52% 30.11 in 10.0 mi Calm Calm - N/A   Clear
4:55 AM 26.1 °F - 11.7 °F 55% 30.10 in 10.0 mi Calm Calm - N/A   Clear
5:15 AM 23.5 °F 17.6 °F 12.4 °F 62% 30.09 in 10.0 mi South 4.6 mph - N/A   Clear
5:35 AM 24.6 °F 20.3 °F 13.1 °F 62% 30.10 in 10.0 mi SE 3.5 mph - N/A   Clear
5:55 AM 26.1 °F 21.9 °F 13.6 °F 59% 30.10 in 10.0 mi SE 3.5 mph - N/A   Clear
6:15 AM 26.1 °F - 12.9 °F 58% 30.10 in 10.0 mi Calm Calm - N/A   Clear
6:35 AM 27.5 °F - 13.6 °F 56% 30.09 in 10.0 mi Calm Calm - N/A   Clear
6:55 AM 28.4 °F - 15.3 °F 58% 30.10 in 10.0 mi Calm Calm - N/A   Clear
7:15 AM 28.4 °F - 15.3 °F 58% 30.12 in 10.0 mi Calm Calm - N/A   Clear
7:35 AM 28.4 °F - 15.4 °F 58% 30.12 in 10.0 mi Calm Calm - N/A   Clear
7:55 AM 28.9 °F - 16.9 °F 61% 30.12 in 10.0 mi Calm Calm - N/A   Clear
8:15 AM 36.3 °F - 14.0 °F 40% 30.12 in 10.0 mi Calm Calm - N/A   Clear
8:35 AM 41.4 °F 36.8 °F 15.8 °F 36% 30.12 in 10.0 mi WNW 6.9 mph - N/A   Clear
8:55 AM 48.4 °F - 13.3 °F 24% 30.13 in 10.0 mi WNW 12.7 mph - N/A   Clear
9:15 AM 48.4 °F - 11.8 °F 23% 30.14 in 10.0 mi WNW 9.2 mph - N/A   Clear
9:35 AM 51.3 °F - 13.1 °F 22% 30.15 in 10.0 mi NW 11.5 mph 18.4 mph N/A   Clear
9:55 AM 53.6 °F - 14.4 °F 21% 30.15 in 10.0 mi NNW 15.0 mph - N/A   Clear
10:15 AM 55.6 °F - 16.0 °F 21% 30.15 in 10.0 mi NNW 13.8 mph 17.3 mph N/A   Clear
10:35 AM 55.8 °F - 16.0 °F 21% 30.15 in 10.0 mi NNW 11.5 mph - N/A   Clear
10:55 AM 56.1 °F - 16.7 °F 21% 30.15 in 10.0 mi North 9.2 mph - N/A   Clear
11:15 AM 58.3 °F - 17.8 °F 21% 30.14 in 10.0 mi NNW 8.1 mph - N/A   Clear
11:35 AM 59.0 °F - 18.9 °F 21% 30.14 in 10.0 mi NNW 8.1 mph - N/A   Clear
11:55 AM 60.6 °F - 20.1 °F 21% 30.13 in 10.0 mi NNW 4.6 mph - N/A   Clear
12:15 PM 61.9 °F - 20.8 °F 21% 30.12 in 10.0 mi North 4.6 mph - N/A   Clear
12:35 PM 63.5 °F - 21.7 °F 20% 30.11 in 10.0 mi NNW 4.6 mph - N/A   Clear
12:55 PM 65.8 °F - 23.7 °F 20% 30.10 in 10.0 mi NNW 8.1 mph - N/A   Clear
1:15 PM 66.4 °F - 23.9 °F 20% 30.09 in 10.0 mi North 4.6 mph - N/A   Clear
1:35 PM 68.4 °F - 24.6 °F 19% 30.08 in 10.0 mi North 8.1 mph - N/A   Clear
1:55 PM 68.4 °F - 24.1 °F 19% 30.07 in 10.0 mi NNW 9.2 mph - N/A   Clear
2:15 PM 68.4 °F - 23.2 °F 18% 30.07 in 10.0 mi North 6.9 mph - N/A   Clear
2:35 PM 68.4 °F - 22.3 °F 17% 30.06 in 10.0 mi NNW 5.8 mph - N/A   Clear
2:55 PM 68.4 °F - 22.6 °F 18% 30.05 in 10.0 mi Calm Calm - N/A   Clear
3:15 PM 68.4 °F - 21.6 °F 17% 30.05 in 10.0 mi WSW 5.8 mph - N/A   Clear
3:35 PM 68.4 °F - 21.9 °F 17% 30.05 in 10.0 mi Calm Calm - N/A   Clear
3:55 PM 68.4 °F - 21.9 °F 17% 30.05 in 10.0 mi West 6.9 mph - N/A   Clear
4:15 PM 68.4 °F - 22.1 °F 17% 30.05 in 10.0 mi WNW 8.1 mph - N/A   Clear
4:35 PM 68.4 °F - 23.5 °F 18% 30.05 in 10.0 mi NW 4.6 mph - N/A   Clear
4:55 PM 66.0 °F - 24.1 °F 20% 30.05 in 10.0 mi West 4.6 mph - N/A   Clear
5:15 PM 63.5 °F - 24.8 °F 23% 30.05 in 10.0 mi West 3.5 mph - N/A   Clear
5:35 PM 60.8 °F - 24.6 °F 25% 30.05 in 10.0 mi Calm Calm - N/A   Clear
5:55 PM 58.3 °F - 26.4 °F 30% 30.05 in 10.0 mi Calm Calm - N/A   Clear
6:15 PM 58.3 °F - 28.0 °F 32% 30.05 in 10.0 mi West 3.5 mph - N/A   Clear
6:35 PM 55.8 °F - 27.3 °F 34% 30.05 in 10.0 mi Calm Calm - N/A   Clear
6:55 PM 55.9 °F - 27.1 °F 33% 30.05 in 10.0 mi WSW 3.5 mph - N/A   Clear
7:15 PM 53.6 °F - 29.1 °F 39% 30.05 in 10.0 mi West 3.5 mph - N/A   Clear
7:35 PM 50.9 °F - 30.0 °F 45% 30.05 in 10.0 mi Calm Calm - N/A   Clear
7:55 PM 48.4 °F - 29.8 °F 49% 30.04 in 10.0 mi Calm Calm - N/A   Clear
8:15 PM 50.0 °F - 30.7 °F 48% 30.04 in 10.0 mi SSE 3.5 mph - N/A   Clear
9:15 PM 48.4 °F - 31.5 °F 52% 30.02 in 10.0 mi Calm Calm - N/A   Clear
9:35 PM 48.4 °F - 31.6 °F 52% 30.02 in 10.0 mi West 3.5 mph - N/A   Clear
9:55 PM 48.4 °F - 31.8 °F 53% 30.02 in 10.0 mi Calm Calm - N/A   Clear
10:15 PM 48.4 °F - 30.4 °F 50% 30.01 in 10.0 mi Calm Calm - N/A   Clear
10:35 PM 41.2 °F - 30.0 °F 65% 30.01 in 10.0 mi Calm Calm - N/A   Clear
10:55 PM 42.1 °F - 30.2 °F 63% 30.00 in 10.0 mi Calm Calm - N/A   Clear
11:15 PM 44.6 °F - 31.3 °F 60% 30.00 in 10.0 mi Calm Calm - N/A   Clear
11:35 PM 45.9 °F 44.6 °F 31.8 °F 58% 29.99 in 10.0 mi SE 3.5 mph - N/A   Clear
11:55 PM 43.3 °F 41.7 °F 30.7 °F 61% 29.98 in 10.0 mi SE 3.5 mph - N/A   Clear